Change the Weather History Date:

Thursday, January 31, 2013

  Actual Average Record
Temperature  
Mean Temperature 24 °F 25 °F  
Max Temperature 38 °F 39 °F 60 °F (1971)
Min Temperature 10 °F 11 °F -17 °F (2008)
Degree Days  
Heating Degree Days 41 40  
Month to date heating degree days 1499 1284  
Since 1 July heating degree days 4237 4154  
Cooling Degree Days 0 0  
Month to date cooling degree days 0 0  
Year to date cooling degree days 0 0  
Moisture  
Dew Point 16 °F    
Average Humidity 72    
Maximum Humidity 92    
Minimum Humidity 52    
Precipitation  
Precipitation 0.00 in 0.04 in 0.22 in (1978)
Month to date precipitation 1.74 1.12  
Year to date precipitation 1.74 1.12  
Sea Level Pressure  
Sea Level Pressure 30.38 in    
Wind  
Wind Speed 5 mph (ENE)    
Max Wind Speed 12 mph    
Max Gust Speed 15 mph    
Visibility 10 miles    
Events      
T = Trace of Precipitation, MM = Missing Value Source: NWS Daily Summary

Daily Weather History Graph

Daily Weather History Graph

Search for Another Location

Airport or City:

Trip Planner

Search our weather history database for the weather conditions in past years. The results will help you decide how hot, cold, wet, or windy it might be!

Date:

Astronomy

Jan. 31, 2013 Rise Set
Actual Time 7:14 AM MST 5:35 PM MST
Civil Twilight 6:46 AM MST 6:02 PM MST
Nautical Twilight 6:15 AM MST 6:33 PM MST
Astronomical Twilight 5:45 AM MST 7:04 PM MST
Moon 10:32 PM MST (1/31) 9:23 AM MST (1/31)
Length of Visible Light 11h 15m
Length of Day
10h 20m
Waning Gibbous, 79% of the Moon is Illuminated
Jan 31
Waning Gibbous
Feb 3
Last Quarter
Feb 10
New
Feb 17
First Quarter
Feb 25
Full

Hourly Weather History & Observations

Time (MST) Temp. Windchill Dew Point Humidity Pressure Visibility Wind Dir Wind Speed Gust Speed Precip Events Conditions
12:53 AM 15.1 °F 9.4 °F 10.9 °F 84% 30.34 in 10.0 mi East 3.5 mph - N/A   Clear
1:53 AM 14.0 °F 6.5 °F 10.0 °F 84% 30.34 in 10.0 mi ENE 4.6 mph - N/A   Clear
2:53 AM 12.9 °F 2.6 °F 10.0 °F 88% 30.34 in 10.0 mi NE 6.9 mph - N/A   Clear
3:53 AM 10.9 °F 2.9 °F 8.1 °F 88% 30.34 in 10.0 mi NE 4.6 mph - N/A   Clear
4:53 AM 10.9 °F 4.7 °F 9.0 °F 92% 30.36 in 10.0 mi NE 3.5 mph - N/A   Clear
5:53 AM 10.9 °F -2.6 °F 7.0 °F 84% 30.38 in 10.0 mi East 10.4 mph - N/A   Clear
6:53 AM 12.9 °F 2.6 °F 9.0 °F 84% 30.38 in 10.0 mi ESE 6.9 mph - N/A   Clear
7:53 AM 14.0 °F 6.5 °F 9.0 °F 80% 30.40 in 10.0 mi ENE 4.6 mph - N/A   Clear
8:53 AM 17.1 °F 10.0 °F 12.0 °F 81% 30.42 in 10.0 mi East 4.6 mph - N/A   Clear
9:53 AM 24.1 °F 19.7 °F 16.0 °F 71% 30.40 in 10.0 mi ENE 3.5 mph - N/A   Clear
10:53 AM 26.1 °F 15.6 °F 16.0 °F 66% 30.40 in 10.0 mi East 11.5 mph - N/A   Clear
11:53 AM 32.0 °F 26.4 °F 19.0 °F 59% 30.40 in 10.0 mi East 5.8 mph - N/A   Clear
12:53 PM 32.0 °F 24.8 °F 21.0 °F 64% 30.39 in 10.0 mi East 8.1 mph - N/A   Clear
1:53 PM 34.0 °F 28.0 °F 21.9 °F 61% 30.36 in 10.0 mi NE 6.9 mph - N/A   Clear
2:53 PM 37.0 °F 34.5 °F 21.0 °F 52% 30.35 in 10.0 mi ENE 3.5 mph - N/A   Clear
3:53 PM 37.9 °F 33.5 °F 23.0 °F 55% 30.36 in 10.0 mi East 5.8 mph - N/A   Clear
4:53 PM 37.0 °F 32.4 °F 23.0 °F 57% 30.38 in 10.0 mi East 5.8 mph - N/A   Clear
5:53 PM 33.1 °F 27.7 °F 23.0 °F 66% 30.42 in 10.0 mi ENE 5.8 mph - N/A   Clear
6:53 PM 32.0 °F 26.4 °F 23.0 °F 69% 30.42 in 10.0 mi SSW 5.8 mph - N/A   Clear
7:53 PM 24.1 °F 18.2 °F 19.9 °F 84% 30.45 in 10.0 mi NE 4.6 mph - N/A   Clear
8:53 PM 25.0 °F - 21.0 °F 85% 30.43 in 10.0 mi Calm Calm - N/A   Clear
9:53 PM 25.0 °F - 21.0 °F 85% 30.39 in 10.0 mi Calm Calm - N/A   Clear
11:53 PM 21.0 °F 16.2 °F 17.1 °F 85% 30.39 in 10.0 mi NNE 3.5 mph - N/A   Clear